Location: Mount Kobau Star Party
(49.1167°N, 119.7333°W)
Time: 18:13:32
(UTC-07:00)

Envisat - Visible Passes

Search period start: 21 October 2017 00:00
Search period end: 31 October 2017 00:00
Orbit: 764 x 766 km, 98.2° (Epoch: 21 October)

Date Brightness Start Highest point End Pass type
(mag) Time Alt. Az. Time Alt. Az. Time Alt. Az.
21 Oct 3.6 19:42:01 32° E 19:42:43 33° ENE 19:47:14 10° N visible
21 Oct 4.3 21:22:14 38° W 21:22:14 38° W 21:26:26 10° NNW visible
22 Oct 4.4 19:05:02 16° ENE 19:06:24 18° ENE 19:09:46 10° NNE visible
22 Oct 3.1 20:45:15 73° NW 20:45:15 73° NW 20:49:56 10° NNW visible
22 Oct 5.9 22:25:28 11° WNW 22:25:28 11° WNW 22:26:27 10° WNW visible
23 Oct 3.1 20:08:16 52° ENE 20:08:16 52° ENE 20:13:07 10° N visible
23 Oct 5.1 21:48:28 23° WNW 21:48:28 23° WNW 21:51:36 10° NW visible
24 Oct 3.9 19:31:16 27° ENE 19:31:43 28° ENE 19:35:58 10° N visible
24 Oct 4.1 21:11:29 42° WNW 21:11:29 42° WNW 21:15:26 10° NNW visible
25 Oct 4.6 18:54:17 14° ENE 18:55:26 15° NE 18:58:17 10° NNE visible
25 Oct 3.1 20:34:30 65° N 20:34:30 65° N 20:38:50 10° NNW visible
25 Oct 5.8 22:14:43 13° WNW 22:14:43 13° WNW 22:16:12 10° NW visible
26 Oct 3.4 19:57:31 42° NE 19:57:31 42° NE 20:01:54 10° N visible
26 Oct 5.0 21:37:43 25° WNW 21:37:43 25° WNW 21:40:43 10° NNW visible
27 Oct 4.1 19:20:31 23° ENE 19:20:43 23° ENE 19:24:39 10° N visible
27 Oct 4.0 21:00:43 44° NW 21:00:43 44° NW 21:04:24 10° NNW visible
28 Oct 4.7 18:43:31 12° ENE 18:44:29 13° NE 18:46:39 10° NNE visible
28 Oct 3.4 20:23:45 52° NNE 20:23:45 52° NNE 20:27:41 10° N visible
28 Oct 5.6 22:03:57 15° WNW 22:03:57 15° WNW 22:05:37 10° NW visible
29 Oct 3.7 19:46:44 34° NE 19:46:44 34° NE 19:50:41 10° N visible
29 Oct 4.9 21:26:58 27° NW 21:26:58 27° NW 21:29:46 10° NNW visible
30 Oct 4.3 19:09:44 19° ENE 19:09:44 19° ENE 19:13:17 10° NNE visible
30 Oct 4.0 20:49:57 42° NNW 20:49:57 42° NNW 20:53:19 10° NNW visible
